This is the latest recevied weather packets stored in our database for station/object DL1VED. If no packets are shown the sender has not sent any weather packets the latest 10 day(s).
| Time | Temp. | Humidity | Pressure | Rain* | Wind** | Luminosity | Snow |
|---|---|---|---|---|---|---|---|
| 1778311743 | 14.44° C | 65% | 1018 hPa | 0 mm | - | - | - |
| 1778310842 | 13.89° C | 65% | 1018 hPa | 0 mm | - | - | - |
| 1778309942 | 13.33° C | 67% | 1017.9 hPa | 0 mm | - | - | - |
| 1778309043 | 12.78° C | 69% | 1017.9 hPa | 0 mm | - | - | - |
| 1778308142 | 12.22° C | 72% | 1018 hPa | 0 mm | - | - | - |
| 1778307243 | 11.67° C | 73% | 1018 hPa | 0 mm | - | - | - |
| 1778306343 | 11.11° C | 75% | 1018 hPa | 0 mm | - | - | - |
| 1778305443 | 10.56° C | 77% | 1017.9 hPa | 0 mm | - | - | - |
| 1778304543 | 10° C | 79% | 1017.9 hPa | 0 mm | - | - | - |
| 1778303643 | 8.89° C | 80% | 1017.7 hPa | 0 mm | - | - | - |
| 1778302743 | 8.89° C | 80% | 1017.6 hPa | 0 mm | - | - | - |
| 1778301843 | 8.33° C | 80% | 1017.3 hPa | 0 mm | - | - | - |
| 1778300943 | 8.33° C | 81% | 1017.5 hPa | 0 mm | - | - | - |
| 1778300043 | 8.33° C | 80% | 1017.3 hPa | 0 mm | - | - | - |
| 1778299143 | 8.33° C | 80% | 1017.3 hPa | 0 mm | - | - | - |
| 1778298243 | 8.33° C | 80% | 1017.3 hPa | 0 mm | - | - | - |
| 1778297343 | 8.33° C | 79% | 1017.3 hPa | 0 mm | - | - | - |
| 1778296443 | 8.33° C | 80% | 1017.3 hPa | 0 mm | - | - | - |
| 1778295543 | 8.33° C | 79% | 1017.5 hPa | 0 mm | - | - | - |
| 1778294643 | 8.33° C | 79% | 1017.5 hPa | 0 mm | - | - | - |
| 1778293743 | 8.33° C | 78% | 1017.5 hPa | 0 mm | - | - | - |
| 1778292843 | 8.33° C | 78% | 1017.6 hPa | 0 mm | - | - | - |
| 1778291943 | 8.33° C | 78% | 1017.6 hPa | 0 mm | - | - | - |
| 1778291043 | 8.33° C | 77% | 1017.6 hPa | 0 mm | - | - | - |
| 1778290143 | 8.33° C | 77% | 1017.7 hPa | 0 mm | - | - | - |
* Rain latest hour (hover to see other rain measurements)
** Current wind speed in m/s (hover to see current wind gust speed)